DW4183 Weather Reports


time (UTC)temp
C
wind
direction
speed
KPH
gust
KPH
rain 1hr
cm
rain 24hr
cm
rain mn
cm
humidity
%
barometer
mb
20260504210101 25 151 1.6 0.0 0.00 0.00 0.00 29 1011.8
20260504204557 25 210 1.6 0.0 0.00 0.00 0.00 31 1011.8
20260504203108 25 140 3.2 0.0 0.00 0.00 0.00 30 1011.9
20260504201557 25 167 1.6 0.0 0.00 0.00 0.00 31 1012.1
20260504200057 25 279 3.2 0.0 0.00 0.00 0.00 33 1012.3
20260504194552 25 190 1.6 0.0 0.00 0.00 0.00 32 1012.5
20260504193053 25 298 3.2 0.0 0.00 0.00 0.00 32 1012.7
20260504191556 25 267 1.6 0.0 0.00 0.00 0.00 32 1012.8
20260504190047 26 274 3.2 0.0 0.00 0.00 0.00 34 1013.2
20260504184543 25 294 1.6 0.0 0.00 0.00 0.00 32 1013.3
20260504183039 24 331 1.6 0.0 0.00 0.00 0.00 32 1013.6
20260504181544 24 283 3.2 0.0 0.00 0.00 0.00 32 1013.9
20260504180037 24 292 1.6 0.0 0.00 0.00 0.00 33 1013.9
20260504174535 24 283 1.6 0.0 0.00 0.00 0.00 35 1013.9
20260504173031 23 211 1.6 0.0 0.00 0.00 0.00 32 1014.0
20260504171529 23 107 1.6 0.0 0.00 0.00 0.00 34 1014.2
20260504150108 16 128 1.6 0.0 0.00 0.00 0.00 54 1016.6
20260504081505 5 27 0.0 0.0 0.00 0.00 0.00 85 1015.7
20260504044548 7 27 0.0 0.0 0.00 0.00 0.00 77 1016.0
20260504043041 7 27 0.0 0.0 0.00 0.00 0.00 76 1015.8
20260504041538 7 27 0.0 0.0 0.00 0.00 0.00 75 1015.8
20260504040044 8 27 0.0 0.0 0.00 0.00 0.00 74 1015.6
20260504034543 8 27 0.0 0.0 0.00 0.00 0.00 74 1015.8
20260504033035 8 27 0.0 0.0 0.00 0.00 0.00 72 1015.8
20260504031535 8 27 0.0 0.0 0.00 0.00 0.00 70 1016.1
20260504030037 8 27 0.0 0.0 0.00 0.00 0.00 69 1015.9
20260504024535 9 29 0.0 0.0 0.00 0.00 0.00 67 1015.9
20260504023033 9 2 0.0 0.0 0.00 0.00 0.00 66 1015.8
20260504021533 10 2 0.0 0.0 0.00 0.00 0.00 63 1015.7
20260504020033 10 26 0.0 0.0 0.00 0.00 0.00 60 1015.3
20260504014534 11 26 0.0 0.0 0.00 0.00 0.00 57 1015.0
20260504013045 11 27 0.0 0.0 0.00 0.00 0.00 53 1014.8
20260504011531 12 27 0.0 0.0 0.00 0.00 0.00 51 1014.7
20260504010031 13 27 0.0 0.0 0.00 0.00 0.00 50 1014.6
20260504004531 13 27 0.0 0.0 0.00 0.00 0.00 49 1014.2
20260504003032 15 2 0.0 0.0 0.00 0.00 0.00 46 1014.1
20260504001530 15 2 0.0 0.0 0.00 0.00 0.00 46 1014.0
20260504000029 16 27 0.0 0.0 0.00 0.00 0.00 45 1014.0
20260503234531 16 27 0.0 0.0 0.00 0.00 0.00 42 1014.0
20260503233035 16 27 0.0 0.0 0.00 0.00 0.00 40 1013.9
20260503231527 17 27 0.0 0.0 0.00 0.00 0.00 37 1014.0
20260503230027 17 27 0.0 0.0 0.00 0.00 0.00 37 1013.9
20260503224526 17 26 0.0 0.0 0.00 0.00 0.00 32 1014.0
20260503223026 17 25 0.0 0.0 0.00 0.00 0.00 33 1014.0
20260503221527 18 24 1.6 0.0 0.00 0.00 0.00 32 1014.1
20260503220023 18 242 0.0 0.0 0.00 0.00 0.00 29 1014.2
20260503214521 19 271 3.2 0.0 0.00 0.00 0.00 29 1014.4
20260503213021 20 274 1.6 0.0 0.00 0.00 0.00 28 1014.7
20260503211527 20 326 3.2 0.0 0.00 0.00 0.00 24 1014.7